Showing default

FOSSASAT2E19 (TAT-E), 62676

Orbit data source: Space-Track

FOSSASAT2E19 (TAT-E), 62676 is a payload satellite owned by Fossa Systems (ES) in SSO that was launched on Tue, 14 Jan 2025 UTC via an FALCON 9 launch vehicle from the Air Force Western Test Range (AFWTR). Payload-class satellites include a variety of spacecraft equipped with specific instruments for various scientific and technological missions. These include communications satellites like Starlink; space stations such as the ISS; scientific satellites like the Hubble; Earth observation satellites from companies like Planet Labs, Umbra, and HawkEye 360; GPS; miniature CubeSats for education and research; and military/defense satellites.

Loading next visibility...
Identifier
62676, 2025-009BV
Orbit
SSO
Country
Flag of ESES / SPN
Related business
Manufacturer
Fossa Systems
Mission
Operational Commercial Communications
Bus & Motor
CUBESAT 3U, Unknown motor
Mass
4 kg wet, 4 kg dry
Launch date (UTC)
2025-01-14 (9 months ago)
Launch vehicle
FALCON 9
Launch site
Air Force Western Test Range (AFWTR)
Object type
Payload
Rocket body
Debris
Shape & HBR
Box + 2 Pan, 0.2 m
Radar Cross Section
0.035 m², Medium (>0.1 m² and < 1m²)

Expand to show TLE details & history
Last TLE update: 21 hours ago

TLE from 21 hours ago
0 FOSSASAT2E19 (TAT-E)
1 62676U 25009BV  25286.15272844  .00005740  00000-0  27637-3 0  9993
2 62676  97.4180   3.8601 0006927 117.7125 242.4813 15.19126239 41169
Epoch: 2025-10-13T03:39Z
TLE epoch observation values (Epoch: 2025-10-13T03:39:55.737Z)
Latitude
-0.00001°
Longitude
-73.08174°
Altitude
513.776 km
Speed
7.606 km/s
True Right ascension
00h 15m 26s
True Declination
0° 00' 00"
Sunlit
Object was in full shadow at epoch
Visualization orbit readout
Latitude
Unknown
Longitude
Unknown
Altitude
Unknown
Speed
Unknown
Apparent Right ascension
Unknown
Apparent Declination
Unknown
Sunlit
N/A
Visualization observer readout
Local Sidereal Time
18:49:01
Azimuth
Unknown
Elevation
Unknown
Doppler factor
Unknown
Orbital elements
Apogee altitude
510.216 km
Perigee altitude
500.679 km
Semi-major axis
6,883.585 km
Eccentricity
0.00069
Inclination
97.418°
RAAN
3.8601°
Arg. of periapsis
117.7125°
True anomaly
242.41093°
Mean anomaly
242.4813°
Eccentric anomaly
242.44611°
Mean motion
3.80033 °/min
Orbital period
94.73 mins
BSTAR
0.00027637
Loading maneuver chart data...
Computing Atmospheric mass density...
Loading historical data...
Loading historical data...
Loading historical data...
Loading historical data...
Loading historical data...
Loading historical data...
Loading historical data...

Documentation

Showing up to 5 results
|